Location: Gipe Farm
(40.9466°N, 95.5370°W)
Time: 19:04:25
(UTC-05:00)

Cosmos 1842 - Visible Passes

Search period start: 27 May 2016 00:00
Search period end: 06 June 2016 00:00
Orbit: 525 x 543 km, 82.5° (Epoch: 27 May)

Date Brightness Start Highest point End Pass type
(mag) Time Alt. Az. Time Alt. Az. Time Alt. Az.
27 May 3.7 23:39:23 53° W 23:39:42 55° W 23:43:34 10° N visible
28 May 3.7 23:29:51 50° WSW 23:30:27 57° W 23:34:20 10° N visible
29 May 3.6 23:20:16 44° SW 23:21:13 60° W 23:25:06 10° N visible
30 May 3.6 23:10:39 38° SW 23:11:58 62° W 23:15:52 10° N visible
31 May 3.5 23:00:59 31° SSW 23:02:43 65° W 23:06:37 10° N visible
01 Jun 3.5 22:51:17 25° SSW 22:53:28 68° W 22:57:22 10° N visible
02 Jun 3.4 22:41:32 19° SSW 22:44:13 71° W 22:48:07 10° N visible
03 Jun 3.4 22:31:43 14° SSW 22:34:57 74° W 22:38:52 10° N visible
04 Jun 3.3 22:21:50 10° S 22:25:42 78° W 22:29:37 10° N visible
05 Jun 3.3 22:12:32 10° S 22:16:26 81° W 22:20:21 10° N visible
